sat.trackr.live / text

‹ back to catalog

STARLINK-35032

NORAD 65382 · 2025-191D

PAYLOAD ACTIVE UNKNOWN

§ Identity

Operator
Country
US
Launch date
2025-08-30
Launch site
AFWTR
Launch vehicle
Mass (kg)
RCS (m²)

Purposes: comms

External: N2YO · Heavens-Above · Gunter

§ Orbital elements

Epoch: 2026-09-20T14:06:43.465248Z

Period
93.91 min
Inclination
97.2840°
Eccentricity
0.0002386
Mean motion
15.33453536 rev/d
Perigee alt
463.9 km
Apogee alt
467.2 km
Semi-major
6,843.7 km
B*
3.5637e-4
RAAN
129.6375°
Arg perigee
71.8270°
Mean anomaly
288.3233°
Rev number
5,965

§ Raw data

STARLINK-350321 65382U 25191D   26263.58800307  .00011451  00000+0  35637-3 0  99902 65382  97.2840 129.6375 0002386  71.8270 288.3233 15.33453536 59655

JSON: /api/v1/satellites/65382 · /tle

For live sub-satellite position, see the globe view (requires WebGL).

§ Visibility from observer

Set your observer location to see the next 7 days of passes ≥ 10°. The values pass through the URL so the page stays shareable.

No JS? Fill the form by hand. The geolocation button needs JavaScript.